Find Starlink 30928

NORAD ID: 58452 Int'l Des: 2023-183 Owner: SPXS Country: US Constellation: starlink operational
LEOCIRCULAR

現在のビュー

3D地球を読み込み中...

About Starlink 30928

Starlink 30928 (NORAD 58452) is a starlink constellation satellite (v2 mini) launched Nov 28, 2023 by SPXS of US. It operates in LEO, CIRCULAR orbit with a mass of 730.00 kg.

Starlink 30928について

説明を読み込み中...

次回通過

Passes for default location (London). Set your location on the main map for personalized predictions.

高度履歴

Loading altitude history...

軌道要素

1 58452U 23183R 26166.82381676 .00003104 00000-0 12234-3 0 9996
2 58452 42.9958 207.3252 0001358 266.1952 93.8745 15.27558681141732
Epoch: Jun 15, 2026 • Age: 14 hours

現在のステータス

高度 494.4 km
速度 7.62 km/s
衛星直下点 -40.40°S, 90.43°E
打ち上げ日 Nov 28, 2023
運用期間 2.5 years
タイプ internet

技術仕様

分類 Payload
質量 730.00 kg
乾燥質量 700.00 kg
総質量 730.00 kg
長さ 0.30 m
直径 4.10 m
スパン 29.00 m
形状 Box + pan
製造者 SPXS
バスタイプ Starlink V2M
フェーズステータス In Orbit
所有者/国 SPXS/US

Most Searched